TimeEST,TemperatureF,Dew PointF,Humidity,Sea Level PressureIn,VisibilityMPH,Wind Direction,Wind SpeedMPH,Gust SpeedMPH,PrecipitationIn,Events,Conditions,WindDirDegrees,DateUTC
12:15 AM,12.0,9.1,88,30.03,4.0,Calm,Calm,-,N/A,Snow,Light Snow,0,2013-01-24 05:15:00
12:35 AM,11.8,9.0,88,30.02,5.0,Calm,Calm,-,N/A,Snow,Light Snow,0,2013-01-24 05:35:00
12:55 AM,12.0,9.1,88,30.02,10.0,Calm,Calm,-,N/A,,Overcast,0,2013-01-24 05:55:00
1:15 AM,12.4,9.5,88,30.02,10.0,Calm,Calm,-,N/A,Snow,Light Snow,0,2013-01-24 06:15:00
1:35 AM,12.4,9.5,88,30.03,10.0,WSW,3.5,-,N/A,,Overcast,250,2013-01-24 06:35:00
1:55 AM,12.6,9.5,88,30.03,10.0,WSW,3.5,-,N/A,,Overcast,250,2013-01-24 06:55:00
2:15 AM,12.7,9.5,87,30.04,10.0,West,5.8,-,N/A,,Overcast,260,2013-01-24 07:15:00
2:35 AM,12.6,9.1,86,30.05,10.0,West,6.9,-,N/A,,Mostly Cloudy,270,2013-01-24 07:35:00
2:55 AM,12.0,8.8,87,30.06,10.0,West,6.9,-,N/A,,Scattered Clouds,280,2013-01-24 07:55:00
3:15 AM,11.7,8.4,87,30.07,10.0,West,5.8,-,N/A,,Clear,280,2013-01-24 08:15:00
3:35 AM,12.2,9.3,88,30.08,4.0,West,6.9,-,N/A,Snow,Light Snow,280,2013-01-24 08:35:00
3:56 AM,12.9,9.5,86,30.09,1.8,West,8.1,-,N/A,Snow,Light Snow,280,2013-01-24 08:56:00
4:15 AM,13.1,10.0,88,30.10,3.0,WNW,4.6,-,N/A,Snow,Light Snow,290,2013-01-24 09:15:00
4:35 AM,13.5,10.4,88,30.12,2.0,WNW,4.6,-,N/A,Snow,Light Snow,300,2013-01-24 09:35:00
4:55 AM,13.6,10.4,87,30.13,2.0,WNW,3.5,-,N/A,Snow,Light Snow,290,2013-01-24 09:55:00
5:15 AM,13.3,10.4,88,30.14,3.0,WNW,3.5,-,N/A,Snow,Light Snow,300,2013-01-24 10:15:00
5:35 AM,14.2,10.8,86,30.16,3.0,NW,5.8,-,N/A,Snow,Light Snow,320,2013-01-24 10:35:00
5:55 AM,14.9,11.3,86,30.18,1.5,NNW,6.9,-,N/A,Snow,Light Snow,330,2013-01-24 10:55:00
6:15 AM,14.0,8.8,80,30.20,10.0,NW,5.8,-,N/A,,Mostly Cloudy,320,2013-01-24 11:15:00
6:35 AM,13.6,7.0,75,30.22,10.0,NW,5.8,-,N/A,,Scattered Clouds,320,2013-01-24 11:35:00
6:56 AM,13.6,6.4,73,30.23,10.0,NW,8.1,-,N/A,,Scattered Clouds,320,2013-01-24 11:56:00
7:15 AM,12.7,5.9,74,30.25,10.0,WNW,6.9,-,N/A,,Clear,300,2013-01-24 12:15:00
7:35 AM,12.2,5.7,75,30.26,10.0,WNW,4.6,-,N/A,,Clear,300,2013-01-24 12:35:00
7:55 AM,11.5,5.5,77,30.27,10.0,WNW,5.8,-,N/A,,Scattered Clouds,290,2013-01-24 12:55:00
8:15 AM,11.3,5.9,79,30.29,7.0,WNW,4.6,-,N/A,,Mostly Cloudy,300,2013-01-24 13:15:00
8:35 AM,13.3,8.6,82,30.30,1.8,WNW,3.5,-,N/A,Snow,Light Snow,300,2013-01-24 13:35:00
8:55 AM,14.4,9.5,81,30.31,3.0,WNW,4.6,-,N/A,Snow,Light Snow,290,2013-01-24 13:55:00
9:15 AM,15.1,10.6,82,30.33,10.0,West,5.8,-,N/A,Snow,Light Snow,280,2013-01-24 14:15:00
9:35 AM,16.5,10.8,78,30.34,10.0,West,4.6,-,N/A,,Scattered Clouds,280,2013-01-24 14:35:00
9:56 AM,18.1,11.8,76,30.36,5.0,NW,5.8,-,N/A,Snow,Light Snow,320,2013-01-24 14:56:00
10:15 AM,18.0,12.6,79,30.38,2.0,North,8.1,-,N/A,Snow,Light Snow,360,2013-01-24 15:15:00
10:35 AM,18.3,8.6,66,30.39,10.0,NNW,11.5,20.7,N/A,,Overcast,340,2013-01-24 15:35:00
10:56 AM,17.6,4.8,57,30.41,10.0,North,10.4,18.4,N/A,,Mostly Cloudy,360,2013-01-24 15:56:00
11:15 AM,19.6,2.1,47,30.43,10.0,NNW,11.5,18.4,N/A,,Clear,340,2013-01-24 16:15:00
11:35 AM,19.8,-0.6,41,30.44,10.0,North,10.4,-,N/A,,Clear,360,2013-01-24 16:35:00
11:55 AM,20.1,-0.9,40,30.44,10.0,North,9.2,-,N/A,,Clear,360,2013-01-24 16:55:00
12:15 PM,19.2,-1.1,41,30.44,10.0,North,11.5,17.3,N/A,,Scattered Clouds,350,2013-01-24 17:15:00
12:35 PM,20.1,-0.2,41,30.44,10.0,NNW,10.4,-,N/A,,Scattered Clouds,340,2013-01-24 17:35:00
12:55 PM,20.3,0.7,43,30.44,10.0,NNW,8.1,-,N/A,,Scattered Clouds,330,2013-01-24 17:55:00
1:15 PM,18.7,-0.2,44,30.44,10.0,NNW,11.5,20.7,N/A,,Mostly Cloudy,330,2013-01-24 18:15:00
1:35 PM,18.5,1.8,48,30.44,10.0,NW,9.2,-,N/A,,Mostly Cloudy,320,2013-01-24 18:35:00
1:55 PM,19.2,2.3,48,30.44,10.0,NNW,5.8,-,N/A,,Mostly Cloudy,330,2013-01-24 18:55:00
2:15 PM,17.6,2.8,53,30.45,10.0,NNW,9.2,-,N/A,,Mostly Cloudy,330,2013-01-24 19:15:00
2:35 PM,17.6,0.9,48,30.46,10.0,NW,9.2,16.1,N/A,,Scattered Clouds,320,2013-01-24 19:35:00
2:55 PM,19.6,3.7,50,30.47,10.0,NNW,9.2,-,N/A,,Mostly Cloudy,330,2013-01-24 19:55:00
3:15 PM,19.4,2.5,48,30.47,10.0,NNW,11.5,-,N/A,,Scattered Clouds,330,2013-01-24 20:15:00
3:35 PM,17.4,2.7,52,30.48,10.0,NW,9.2,-,N/A,,Scattered Clouds,310,2013-01-24 20:35:00
3:55 PM,17.6,3.2,53,30.49,10.0,West,9.2,-,N/A,,Clear,280,2013-01-24 20:55:00
4:15 PM,17.4,2.5,52,30.48,10.0,NNW,9.2,-,N/A,,Clear,330,2013-01-24 21:15:00
4:35 PM,16.7,2.8,55,30.48,10.0,NNW,5.8,-,N/A,,Clear,330,2013-01-24 21:35:00
4:55 PM,16.3,3.0,56,30.49,10.0,NNW,6.9,-,N/A,,Clear,340,2013-01-24 21:55:00
5:15 PM,15.1,2.8,58,30.49,10.0,NNW,4.6,-,N/A,,Clear,340,2013-01-24 22:15:00
5:35 PM,13.6,1.6,59,30.49,10.0,NW,4.6,-,N/A,,Clear,320,2013-01-24 22:35:00
5:55 PM,13.5,1.9,60,30.49,10.0,NNW,3.5,-,N/A,,Clear,340,2013-01-24 22:55:00
6:15 PM,13.6,2.5,61,30.51,10.0,Calm,Calm,-,N/A,,Clear,0,2013-01-24 23:15:00
6:35 PM,12.4,1.9,63,30.51,10.0,Calm,Calm,-,N/A,,Clear,0,2013-01-24 23:35:00
6:55 PM,9.5,1.8,71,30.51,10.0,Calm,Calm,-,N/A,,Clear,0,2013-01-24 23:55:00
7:15 PM,9.7,1.9,71,30.51,10.0,Calm,Calm,-,N/A,,Clear,0,2013-01-25 00:15:00
7:36 PM,8.4,2.1,76,30.51,10.0,Calm,Calm,-,N/A,,Clear,0,2013-01-25 00:36:00
7:55 PM,8.1,1.6,75,30.51,10.0,Calm,Calm,-,N/A,,Clear,0,2013-01-25 00:55:00
8:15 PM,7.0,1.6,79,30.50,10.0,Calm,Calm,-,N/A,,Clear,0,2013-01-25 01:15:00
8:35 PM,5.7,1.0,81,30.49,10.0,Calm,Calm,-,N/A,,Clear,0,2013-01-25 01:35:00
8:55 PM,6.3,1.8,82,30.49,10.0,Calm,Calm,-,N/A,,Clear,0,2013-01-25 01:55:00
9:15 PM,5.4,0.9,82,30.48,10.0,Calm,Calm,-,N/A,,Unknown,0,2013-01-25 02:15:00
9:36 PM,6.4,1.9,82,30.48,10.0,Calm,Calm,-,N/A,,Unknown,0,2013-01-25 02:36:00
9:55 PM,6.4,1.8,81,30.48,10.0,Calm,Calm,-,N/A,,Clear,0,2013-01-25 02:55:00
10:15 PM,6.8,2.3,82,30.49,10.0,Calm,Calm,-,N/A,,Clear,0,2013-01-25 03:15:00
10:35 PM,7.9,3.6,83,30.48,10.0,Calm,Calm,-,N/A,,Clear,0,2013-01-25 03:35:00
10:56 PM,8.2,3.4,81,30.48,10.0,Calm,Calm,-,N/A,,Clear,0,2013-01-25 03:56:00
11:15 PM,9.5,4.3,79,30.48,10.0,Calm,Calm,-,N/A,,Clear,0,2013-01-25 04:15:00
11:35 PM,10.2,4.3,77,30.47,10.0,Calm,Calm,-,N/A,,Clear,0,2013-01-25 04:35:00
11:55 PM,9.5,4.1,79,30.46,10.0,Calm,Calm,-,N/A,,Clear,0,2013-01-25 04:55:00